Wind_Speed
35 37 37 35 32 33 33 29 15 11 12 18 20 24 28 29 29 24 22 22 21 19 18 16 17 18 18 16 15 17 18 18 18 17 17 19 20 19
35 34 35 36 34 33 33 33 30 21 14 21 23 23 26 29 26 23 20 21 19 17 16 17 16 18 21 20 15 16 15 14 16 16 16 17 17 19
34 34 35 33 31 31 32 31 32 29 13 25 25 24 27 28 25 21 21 19 15 13 13 15 17 19 23 19 14 13 13 15 15 15 16 16 17 19
35 34 36 33 34 34 32 33 32 33 29 18 26 23 26 26 23 21 21 16 16 15 15 15 17 21 21 13 13 14 14 16 15 15 15 16 18 18
35 35 36 35 35 33 35 30 31 32 32 27 20 18 20 21 20 21 21 20 16 17 16 16 17 16 13 14 16 16 15 16 16 15 15 17 17 19
36 35 36 37 37 36 33 33 31 28 28 23 19 11 9 14 20 17 13 17 15 14 11 13 14 14 16 16 16 16 16 15 15 15 15 16 17 19
36 36 39 39 42 42 34 34 33 29 23 20 12 5 8 7 15 16 16 14 16 17 14 13 14 13 14 13 15 16 15 14 16 15 16 17 18 20
34 37 38 38 40 48 47 45 38 31 25 20 16 8 18 18 15 19 16 7 3 16 12 14 13 15 13 13 15 16 16 17 15 16 17 18 19 20
32 35 36 33 34 37 40 50 50 43 39 32 25 24 18 29 23 21 17 12 8 11 9 8 10 13 12 13 16 17 17 16 15 18 19 19 19 21
29 32 33 35 33 33 33 30 34 38 39 36 33 27 25 27 31 25 24 16 10 9 7 2 4 9 10 14 17 17 14 13 16 19 19 19 20 21
26 30 31 35 36 37 33 27 24 23 26 26 24 20 20 24 28 26 20 16 3 6 10 3 3 7 12 16 12 11 11 15 19 18 18 20 21 18
32 28 27 35 38 37 33 25 18 21 20 17 18 20 24 22 24 22 22 12 5 3 11 8 1 4 4 5 6 10 14 16 16 17 19 19 18 17
29 33 29 30 36 37 38 30 33 27 24 27 27 26 25 25 15 14 17 20 11 3 12 8 2 1 4 7 11 13 12 14 17 18 17 17 15 16
31 33 32 32 40 40 38 35 23 27 26 22 19 19 21 20 20 19 14 11 10 12 13 9 4 3 3 5 5 9 15 21 18 16 14 16 17 18
36 35 41 39 38 37 39 25 33 28 27 24 21 17 19 24 20 20 16 11 9 10 9 7 7 7 9 9 10 14 15 10 21 18 13 18 20 19
38 37 37 35 31 21 15 29 22 24 25 23 22 27 26 26 18 17 14 11 7 5 5 8 10 10 13 16 19 23 20 11 13 20 19 21 22 22
48 36 26 16 8 12 15 17 16 17 21 23 31 24 22 21 17 17 13 12 5 9 8 7 7 10 17 23 20 22 22 20 19 20 20 22 24 23
36 24 13 10 9 11 11 11 14 17 18 23 25 28 22 20 20 13 13 10 8 7 6 4 5 9 10 11 23 22 18 18 19 20 21 21 25 20
23 20 11 9 9 6 8 8 5 10 20 20 21 24 23 21 18 14 12 10 7 6 4 3 2 6 3 3 10 19 20 18 19 21 21 20 23 26
21 19 17 16 12 9 9 9 13 16 13 18 20 22 24 20 16 13 11 10 8 6 4 5 8 11 4 3 4 15 15 23 22 22 23 22 25 31
24 21 18 16 13 10 13 17 20 19 18 18 16 20 22 18 15 13 12 10 8 5 3 6 8 10 12 14 6 9 20 16 20 23 23 20 17 15
25 23 22 21 14 12 17 21 22 24 25 23 18 20 17 16 16 15 13 11 7 4 3 7 9 10 9 8 7 16 19 24 25 19 20 20 15 4
27 26 25 22 12 13 17 19 20 21 22 24 23 20 17 16 16 15 13 10 7 3 3 6 9 9 13 15 16 16 21 23 22 25 22 17 15 22
Wind_Direction
233 232 231 237 234 232 230 225 226 244 246 241 231 236 245 231 241 247 242 241 242 248 248 254 263 273 279 281 285 292 295 300 303 303 301 300 299 299
236 234 233 234 233 230 229 228 228 231 252 239 238 234 227 225 233 236 229 232 237 241 241 264 270 276 283 285 290 290 294 298 295 297 294 296 296 295
244 240 239 235 233 231 230 228 229 226 236 245 240 229 234 226 226 223 228 232 239 233 238 257 270 277 285 289 280 280 288 288 288 287 288 291 294 295
250 247 241 238 236 235 229 226 228 228 232 241 239 226 220 223 228 227 228 230 219 242 248 260 270 278 282 268 263 275 282 280 284 283 283 286 289 295
255 252 249 243 235 233 233 226 226 228 228 236 236 215 212 208 210 223 225 227 236 232 247 263 267 268 257 256 264 268 272 274 280 280 280 281 289 295
264 256 255 249 245 239 232 228 230 227 226 224 224 188 199 209 206 195 198 216 218 232 240 242 242 251 258 261 264 263 267 272 277 277 275 283 291 294
277 267 257 252 250 243 234 233 227 223 220 213 209 166 169 176 196 194 190 193 212 226 237 241 250 255 256 255 258 262 264 268 275 270 275 283 290 291
282 277 266 260 260 253 246 237 234 223 213 203 201 208 198 212 192 180 170 155 208 219 224 245 237 241 252 250 260 261 267 272 266 267 277 285 289 289
285 280 279 270 259 255 249 245 242 234 226 213 203 211 199 204 191 169 170 167 169 179 199 264 243 239 251 259 265 267 272 267 262 271 278 286 287 288
295 291 284 281 271 259 249 243 240 233 229 221 215 224 210 195 199 192 175 160 154 180 197 236 228 242 265 269 271 270 259 259 269 275 279 283 283 286
312 302 298 283 276 272 257 239 236 222 227 220 215 214 205 195 188 166 149 142 169 170 195 223 268 298 287 278 268 250 255 272 280 278 279 281 282 280
314 305 309 299 283 271 262 237 199 195 183 166 151 150 158 160 175 178 169 154 130 156 188 179 356 13 321 270 253 259 278 281 276 282 283 280 275 276
316 311 308 304 295 278 264 241 219 191 168 160 148 146 143 147 157 152 170 177 157 115 169 163 118 315 253 293 290 276 280 280 288 287 283 278 268 272
307 302 301 306 300 285 268 250 206 166 155 148 142 143 143 144 151 148 155 177 172 126 161 183 170 195 293 296 265 302 300 296 290 282 283 281 278 282
308 300 299 302 303 284 272 218 168 162 157 154 147 148 142 145 150 146 155 181 175 161 170 210 223 228 243 249 278 287 308 298 290 280 277 285 283 280
311 306 298 296 291 271 208 167 167 168 167 160 150 135 141 143 143 150 151 178 160 147 193 218 233 240 253 258 262 274 280 273 281 290 291 289 285 280
308 300 288 273 209 164 159 164 159 162 152 150 138 138 140 139 141 154 156 171 149 153 177 221 255 257 264 266 269 261 267 269 275 289 294 289 285 279
319 301 271 237 224 179 172 172 171 169 155 149 145 140 143 139 141 155 163 164 153 164 186 210 255 313 307 279 246 252 265 272 285 292 289 286 284 283
335 333 303 275 267 220 184 189 175 163 147 144 135 133 133 136 145 159 158 151 155 168 183 216 272 279 281 266 285 240 255 274 286 289 283 279 284 287
332 324 315 289 263 216 187 161 135 131 130 132 130 133 135 143 150 153 154 153 157 152 197 231 235 247 228 265 306 278 276 274 278 282 289 291 289 293
331 322 305 294 271 211 166 147 140 132 128 125 134 136 139 146 146 144 146 150 147 157 223 250 257 271 278 283 274 280 310 306 293 281 292 290 288 287
324 324 313 297 271 204 170 156 149 144 143 145 145 139 141 145 138 138 144 144 157 156 244 276 287 290 275 247 287 295 301 313 313 302 288 270 260 273
322 323 318 304 266 208 178 166 163 157 155 144 143 140 144 137 135 137 137 132 138 168 254 293 297 284 271 272 297 293 297 310 320 327 317 322 288 276
Height
691 690 690 690 692 693 693 694 695 694 689 690 693 692 693 694 695 696 696 696 697 698 699 700 702 702 701 700 700 698 697 695 693 691 690 689 688 687
681 680 679 678 679 681 682 683 684 683 679 680 680 681 682 683 686 688 690 690 691 690 690 692 694 694 696 694 692 693 691 690 689 687 686 685 684 683
673 671 670 670 670 672 672 672 671 673 670 668 670 670 671 675 677 681 682 684 685 686 685 685 687 688 689 688 688 688 687 687 684 682 682 681 680 679
662 664 660 661 661 661 659 658 660 661 661 658 660 663 662 664 669 673 676 679 680 678 679 680 682 682 682 683 683 682 682 683 681 679 678 677 676 675
654 653 652 653 648 648 650 647 647 649 650 651 649 654 655 656 661 665 668 672 673 673 673 673 676 676 676 677 678 677 676 677 676 674 674 673 671 670
646 642 641 641 640 638 639 638 639 640 641 642 644 644 649 649 652 658 663 666 669 671 670 672 672 671 672 672 672 673 672 671 671 670 669 668 666 666
640 636 633 627 627 628 627 628 625 628 632 632 634 639 640 647 645 648 654 658 663 665 666 667 668 666 666 666 667 668 666 665 666 665 664 662 661 660
633 629 625 620 617 618 618 616 617 616 618 619 623 625 625 635 640 641 646 653 659 658 661 662 663 662 662 662 664 664 661 659 659 660 659 657 656 655
626 622 618 613 609 608 607 606 607 607 607 608 608 611 614 619 630 633 637 642 645 651 657 656 657 657 657 657 659 658 656 655 654 654 653 651 650 649
619 616 612 605 602 600 599 598 597 598 599 600 598 603 606 609 618 620 627 637 644 648 650 654 652 652 652 653 652 652 649 650 650 649 647 645 644 643
611 610 606 601 597 596 593 590 588 589 591 593 593 597 603 605 611 618 625 630 642 644 646 650 648 648 647 646 646 646 645 645 645 643 641 639 638 636
607 600 597 597 592 587 586 582 580 581 585 589 590 595 598 604 609 611 620 628 635 640 642 646 645 647 645 643 643 642 641 641 640 638 635 634 632 631
607 599 591 589 585 580 577 574 569 572 579 583 587 591 597 601 614 616 620 623 630 633 637 639 645 646 647 643 639 637 637 636 634 631 629 628 627 626
606 599 589 581 577 572 567 564 565 567 574 582 585 590 596 603 609 613 620 630 631 629 633 636 641 644 646 645 640 633 633 630 628 625 624 623 621 620
601 593 584 575 569 563 560 558 560 563 568 575 578 590 596 600 609 611 617 629 631 629 630 633 638 642 643 642 639 633 630 624 623 619 618 617 615 614
594 584 576 569 563 558 557 558 559 561 565 570 580 583 595 600 609 611 617 628 629 627 629 633 636 638 638 637 636 629 626 625 617 615 612 610 609 608
587 575 566 562 559 557 558 558 561 566 565 571 571 584 592 599 606 611 617 625 623 624 628 631 633 634 633 632 629 622 620 617 614 611 609 605 602 600
578 567 562 560 559 556 558 561 562 565 564 566 572 578 589 595 602 613 618 621 621 624 627 630 631 631 628 621 617 615 615 611 608 607 605 601 593 592
581 573 566 564 563 561 560 563 566 569 566 568 574 579 586 596 605 613 616 618 621 624 627 629 630 630 629 625 615 613 610 606 603 600 598 596 589 583
583 577 571 566 563 563 563 566 568 571 577 575 578 581 586 596 605 610 613 617 621 624 626 627 627 626 627 625 620 608 608 602 599 595 591 589 585 578
583 578 571 566 563 562 562 564 568 572 577 579 585 585 589 598 604 608 614 617 620 623 624 625 624 623 622 621 618 606 600 600 596 591 587 582 576 568
585 578 572 567 564 561 561 563 566 570 575 580 586 588 595 600 603 609 614 617 620 622 623 622 621 620 620 618 614 607 600 592 589 583 578 574 571 567
585 578 571 566 564 563 563 564 566 568 574 577 583 591 598 601 606 611 614 618 619 622 622 621 618 618 617 615 610 602 595 589 582 575 568 565 562 558